sat.trackr.live / text

‹ back to catalog

STARLINK-31041

NORAD 58537 · 2023-192G

PAYLOAD ACTIVE UNKNOWN

§ Identity

Operator
Country
US
Launch date
2023-12-08
Launch site
AFWTR
Launch vehicle
Mass (kg)
RCS (m²)

Purposes: comms

External: N2YO · Heavens-Above · Gunter

§ Orbital elements

Epoch: 2026-05-25T01:33:22.614912Z

Period
93.85 min
Inclination
53.1612°
Eccentricity
0.0000908
Mean motion
15.34394667 rev/d
Perigee alt
462.1 km
Apogee alt
463.3 km
Semi-major
6,840.9 km
B*
-1.1360e-5
RAAN
67.6388°
Arg perigee
92.1937°
Mean anomaly
267.9170°
Rev number
13,768

§ Raw data

STARLINK-310411 58537U 23192G   26145.06484508 -.00000760  00000+0 -11360-4 0  99972 58537  53.1612  67.6388 0000908  92.1937 267.9170 15.34394667137689

JSON: /api/v1/satellites/58537 · /tle

For live sub-satellite position, see the globe view (requires WebGL).

§ Visibility from observer

Set your observer location to see the next 7 days of passes ≥ 10°. The values pass through the URL so the page stays shareable.

No JS? Fill the form by hand. The geolocation button needs JavaScript.